| time (UTC) | temp C | wind direction | speed KPH | gust KPH | rain 1hr cm | rain 24hr cm | rain mn cm | humidity % | barometer mb |
| 20260507165556 | 11 | 0 | 3.2 | 4.8 | 0.05 | 0.56 | 0.08 | 86 | 1011.8 |
| 20260507164516 | 11 | 248 | 4.8 | 11.3 | 0.05 | 0.53 | 0.05 | 85 | 1011.5 |
| 20260507163515 | 11 | 225 | 11.3 | 17.7 | 0.03 | 0.51 | 0.05 | 83 | 1011.5 |
| 20260507162516 | 12 | 225 | 9.7 | 17.7 | 0.00 | 0.51 | 0.03 | 81 | 1011.5 |
| 20260507161515 | 13 | 225 | 8.0 | 16.1 | 0.00 | 0.51 | 0.03 | 78 | 1011.4 |
| 20260507160516 | 13 | 225 | 8.0 | 16.1 | 0.00 | 0.51 | 0.03 | 77 | 1011.4 |
| 20260507155516 | 13 | 135 | 6.4 | 12.9 | 0.00 | 0.51 | 0.03 | 76 | 1011.7 |
| 20260507154516 | 13 | 203 | 11.3 | 20.9 | 0.00 | 0.51 | 0.03 | 76 | 1011.7 |
| 20260507153516 | 13 | 180 | 12.9 | 22.5 | 0.00 | 0.51 | 0.03 | 74 | 1011.5 |
| 20260507152536 | 14 | 203 | 6.4 | 12.9 | 0.00 | 0.51 | 0.03 | 73 | 1011.2 |
| 20260507151516 | 14 | 180 | 8.0 | 19.3 | 0.00 | 0.51 | 0.03 | 71 | 1011.8 |
| 20260507150516 | 15 | 180 | 9.7 | 22.5 | 0.00 | 0.51 | 0.03 | 68 | 1011.7 |
| 20260507145536 | 15 | 203 | 8.0 | 12.9 | 0.00 | 0.51 | 0.03 | 64 | 1011.7 |
| 20260507144516 | 15 | 180 | 6.4 | 16.1 | 0.00 | 0.51 | 0.03 | 64 | 1011.8 |
| 20260507143515 | 16 | 158 | 8.0 | 17.7 | 0.00 | 0.51 | 0.03 | 61 | 1012.1 |
| 20260507142516 | 15 | 203 | 1.6 | 8.0 | 0.00 | 0.51 | 0.03 | 63 | 1011.8 |
| 20260507141516 | 15 | 248 | 4.8 | 14.5 | 0.00 | 0.51 | 0.03 | 64 | 1011.9 |
| 20260507140517 | 15 | 135 | 4.8 | 12.9 | 0.00 | 0.51 | 0.03 | 62 | 1012.1 |
| 20260507135517 | 15 | 45 | 4.8 | 9.7 | 0.00 | 0.51 | 0.03 | 67 | 1012.4 |
| 20260507134538 | 15 | 158 | 4.8 | 11.3 | 0.00 | 0.51 | 0.03 | 65 | 1012.7 |
| 20260507133518 | 14 | 158 | 6.4 | 11.3 | 0.00 | 0.51 | 0.03 | 64 | 1012.8 |
| 20260507132518 | 14 | 158 | 6.4 | 16.1 | 0.00 | 0.51 | 0.03 | 65 | 1013.0 |
| 20260507131538 | 14 | 23 | 4.8 | 9.7 | 0.00 | 0.51 | 0.03 | 66 | 1013.0 |
| 20260507130517 | 14 | 68 | 6.4 | 14.5 | 0.00 | 0.51 | 0.03 | 66 | 1013.1 |
| 20260507125517 | 14 | 158 | 8.0 | 12.9 | 0.00 | 0.51 | 0.03 | 65 | 1013.2 |
| 20260507124517 | 14 | 180 | 8.0 | 11.3 | 0.00 | 0.51 | 0.03 | 65 | 1013.2 |
| 20260507123517 | 14 | 180 | 6.4 | 11.3 | 0.00 | 0.51 | 0.03 | 66 | 1013.2 |
| 20260507122517 | 14 | 180 | 8.0 | 14.5 | 0.00 | 0.51 | 0.03 | 67 | 1013.2 |
| 20260507121558 | 14 | 158 | 8.0 | 14.5 | 0.00 | 0.51 | 0.03 | 67 | 1013.2 |
| 20260507120517 | 14 | 158 | 8.0 | 16.1 | 0.00 | 0.51 | 0.03 | 65 | 1013.2 |
| 20260507115517 | 15 | 158 | 4.8 | 12.9 | 0.00 | 0.51 | 0.03 | 65 | 1013.5 |
| 20260507114518 | 15 | 203 | 8.0 | 12.9 | 0.00 | 0.51 | 0.03 | 65 | 1013.5 |
| 20260507113517 | 15 | 225 | 9.7 | 14.5 | 0.00 | 0.51 | 0.03 | 69 | 1013.8 |
| 20260507112517 | 14 | 203 | 6.4 | 14.5 | 0.00 | 0.51 | 0.03 | 68 | 1013.6 |
| 20260507111517 | 13 | 225 | 4.8 | 11.3 | 0.00 | 0.51 | 0.03 | 67 | 1013.5 |
| 20260507110517 | 13 | 180 | 4.8 | 9.7 | 0.00 | 0.51 | 0.03 | 67 | 1013.6 |
| 20260507105517 | 13 | 225 | 11.3 | 19.3 | 0.00 | 0.51 | 0.03 | 65 | 1013.7 |
| 20260507104537 | 15 | 158 | 6.4 | 11.3 | 0.00 | 0.51 | 0.03 | 64 | 1013.9 |
| 20260507103518 | 15 | 203 | 6.4 | 14.5 | 0.00 | 0.51 | 0.03 | 63 | 1014.0 |
| 20260507102517 | 16 | 180 | 3.2 | 9.7 | 0.00 | 0.51 | 0.03 | 66 | 1014.2 |
| 20260507101537 | 14 | 180 | 4.8 | 9.7 | 0.00 | 0.51 | 0.03 | 66 | 1014.0 |
| 20260507100538 | 15 | 248 | 1.6 | 6.4 | 0.00 | 0.51 | 0.03 | 68 | 1014.1 |
| 20260507095517 | 15 | 203 | 1.6 | 6.4 | 0.00 | 0.51 | 0.03 | 69 | 1014.2 |
| 20260507094517 | 15 | 203 | 11.3 | 17.7 | 0.00 | 0.51 | 0.03 | 68 | 1014.4 |
| 20260507093517 | 15 | 158 | 4.8 | 9.7 | 0.00 | 0.51 | 0.03 | 72 | 1014.4 |
| 20260507092518 | 13 | 225 | 3.2 | 8.0 | 0.00 | 0.51 | 0.03 | 75 | 1014.3 |
| 20260507091517 | 13 | 248 | 3.2 | 9.7 | 0.00 | 0.51 | 0.03 | 79 | 1014.4 |
| 20260507090517 | 12 | 203 | 4.8 | 9.7 | 0.00 | 0.51 | 0.03 | 80 | 1014.2 |
| 20260507085517 | 12 | 203 | 6.4 | 14.5 | 0.00 | 0.51 | 0.03 | 83 | 1014.4 |
| 20260507084517 | 13 | 158 | 4.8 | 11.3 | 0.00 | 0.51 | 0.03 | 85 | 1014.5 |
| 20260507083517 | 12 | 203 | 6.4 | 11.3 | 0.00 | 0.51 | 0.03 | 88 | 1014.6 |
| 20260507082517 | 12 | 180 | 4.8 | 9.7 | 0.00 | 0.51 | 0.03 | 91 | 1014.7 |
| 20260507081517 | 11 | 158 | 6.4 | 11.3 | 0.00 | 0.51 | 0.03 | 92 | 1014.5 |
| 20260507080517 | 11 | 180 | 8.0 | 12.9 | 0.00 | 0.51 | 0.03 | 93 | 1014.6 |
| 20260507075517 | 11 | 135 | 6.4 | 9.7 | 0.00 | 0.51 | 0.03 | 94 | 1014.8 |
| 20260507074517 | 10 | 158 | 3.2 | 8.0 | 0.00 | 0.51 | 0.03 | 94 | 1014.7 |
| 20260507073516 | 11 | 180 | 1.6 | 6.4 | 0.00 | 0.51 | 0.03 | 94 | 1015.0 |
| 20260507072517 | 11 | 0.0 | 1.6 | 0.00 | 0.51 | 0.03 | 95 | 1014.9 | |
| 20260507071517 | 10 | 0.0 | 3.2 | 0.00 | 0.51 | 0.03 | 95 | 1014.7 | |
| 20260507070517 | 10 | 23 | 4.8 | 8.0 | 0.00 | 0.51 | 0.03 | 95 | 1014.4 |
| 20260507065537 | 9 | 23 | 1.6 | 3.2 | 0.00 | 0.51 | 0.03 | 95 | 1014.5 |
| 20260507064537 | 8 | 0.0 | 3.2 | 0.00 | 0.51 | 0.03 | 95 | 1014.1 | |
| 20260507063537 | 6 | 23 | 8.0 | 9.7 | 0.00 | 0.51 | 0.03 | 95 | 1013.9 |
| 20260507062516 | 6 | 23 | 4.8 | 8.0 | 0.00 | 0.51 | 0.03 | 95 | 1013.9 |
| 20260507061537 | 5 | 45 | 6.4 | 8.0 | 0.00 | 0.51 | 0.03 | 94 | 1013.8 |
| 20260507060537 | 5 | 23 | 3.2 | 6.4 | 0.00 | 0.51 | 0.03 | 94 | 1013.9 |
| 20260507055537 | 5 | 0.0 | 1.6 | 0.00 | 0.51 | 0.03 | 94 | 1013.9 | |
| 20260507054517 | 5 | 0 | 1.6 | 3.2 | 0.00 | 0.51 | 0.03 | 94 | 1013.9 |
| 20260507053516 | 4 | 0.0 | 3.2 | 0.03 | 0.51 | 0.03 | 95 | 1013.8 | |
| 20260507052517 | 4 | 0.0 | 1.6 | 0.03 | 0.51 | 0.03 | 95 | 1014.1 | |
| 20260507051517 | 4 | 0.0 | 1.6 | 0.03 | 0.51 | 0.03 | 94 | 1014.1 | |
| 20260507050516 | 4 | 0.0 | 1.6 | 0.03 | 0.51 | 0.03 | 94 | 1014.0 | |
| 20260507045516 | 4 | 45 | 1.6 | 6.4 | 0.03 | 0.51 | 0.03 | 94 | 1013.8 |
| 20260507044516 | 5 | 0 | 1.6 | 3.2 | 0.03 | 0.51 | 0.03 | 94 | 1013.9 |
| 20260507043516 | 5 | 0.0 | 1.6 | 0.00 | 0.48 | 0.00 | 94 | 1014.0 | |
| 20260507042516 | 5 | 0.0 | 4.8 | 0.00 | 0.48 | 0.00 | 94 | 1014.1 | |
| 20260507041516 | 5 | 23 | 4.8 | 9.7 | 0.00 | 0.48 | 0.00 | 94 | 1014.1 |
| 20260507040558 | 5 | 0.0 | 0.0 | 0.00 | 0.48 | 0.00 | 94 | 1014.2 | |
| 20260507035537 | 5 | 0.0 | 0.0 | 0.00 | 0.48 | 0.00 | 94 | 1013.9 | |
| 20260507034516 | 5 | 0.0 | 0.0 | 0.00 | 0.48 | 0.00 | 94 | 1014.2 | |
| 20260507033516 | 5 | 0.0 | 0.0 | 0.00 | 0.48 | 0.00 | 94 | 1014.2 | |
| 20260507032537 | 5 | 0.0 | 0.0 | 0.00 | 0.48 | 0.00 | 94 | 1014.0 | |
| 20260507031516 | 5 | 0.0 | 0.0 | 0.00 | 0.48 | 0.00 | 94 | 1014.0 | |
| 20260507030516 | 5 | 0.0 | 0.0 | 0.00 | 0.48 | 0.00 | 94 | 1014.1 | |
| 20260507025516 | 5 | 0.0 | 0.0 | 0.00 | 0.48 | 0.00 | 94 | 1014.3 | |
| 20260507024536 | 5 | 0.0 | 0.0 | 0.00 | 0.48 | 0.00 | 94 | 1014.4 | |
| 20260507023516 | 6 | 0.0 | 0.0 | 0.00 | 0.48 | 0.00 | 94 | 1014.6 | |
| 20260507022517 | 6 | 0.0 | 0.0 | 0.00 | 0.48 | 0.00 | 94 | 1014.5 | |
| 20260507021517 | 6 | 0.0 | 0.0 | 0.00 | 0.48 | 0.00 | 94 | 1014.5 | |
| 20260507020556 | 6 | 0.0 | 0.0 | 0.00 | 0.48 | 0.00 | 94 | 1014.7 | |
| 20260507015516 | 6 | 0.0 | 0.0 | 0.00 | 0.48 | 0.00 | 94 | 1014.5 | |
| 20260507014516 | 7 | 0.0 | 0.0 | 0.00 | 0.48 | 0.00 | 94 | 1014.8 | |
| 20260507013516 | 7 | 0.0 | 0.0 | 0.00 | 0.48 | 0.00 | 94 | 1014.6 | |
| 20260507012516 | 7 | 0.0 | 0.0 | 0.00 | 0.48 | 0.00 | 94 | 1014.9 | |
| 20260507011516 | 7 | 0.0 | 0.0 | 0.00 | 0.48 | 0.00 | 94 | 1014.6 | |
| 20260507010516 | 7 | 0.0 | 0.0 | 0.00 | 0.48 | 0.00 | 94 | 1014.6 | |
| 20260507005516 | 7 | 0.0 | 0.0 | 0.00 | 0.48 | 0.00 | 94 | 1014.7 | |
| 20260507004516 | 7 | 0.0 | 0.0 | 0.00 | 0.48 | 0.00 | 94 | 1014.8 | |
| 20260507003536 | 7 | 0.0 | 0.0 | 0.00 | 0.48 | 0.00 | 93 | 1015.0 | |
| 20260507002516 | 7 | 0.0 | 0.0 | 0.00 | 0.48 | 0.00 | 93 | 1014.9 | |
| 20260507001536 | 6 | 0.0 | 0.0 | 0.00 | 0.48 | 0.00 | 93 | 1014.8 | |
| 20260507000516 | 7 | 0.0 | 0.0 | 0.00 | 0.48 | 0.00 | 93 | 1014.9 | |
| 20260506235516 | 7 | 0.0 | 0.0 | 0.00 | 0.48 | 0.48 | 93 | 1014.9 | |
| 20260506234516 | 7 | 0.0 | 0.0 | 0.00 | 0.48 | 0.48 | 93 | 1014.9 | |
| 20260506233517 | 7 | 0.0 | 0.0 | 0.00 | 0.48 | 0.48 | 93 | 1014.8 | |
| 20260506232517 | 6 | 0.0 | 1.6 | 0.00 | 0.48 | 0.48 | 93 | 1015.0 | |
| 20260506231517 | 6 | 0.0 | 1.6 | 0.00 | 0.48 | 0.48 | 93 | 1014.8 | |
| 20260506230517 | 6 | 0.0 | 3.2 | 0.03 | 0.48 | 0.48 | 93 | 1014.9 | |
| 20260506225516 | 6 | 180 | 1.6 | 4.8 | 0.05 | 0.48 | 0.48 | 93 | 1014.8 |
| 20260506224516 | 6 | 0.0 | 0.0 | 0.05 | 0.48 | 0.48 | 92 | 1014.8 | |
| 20260506223516 | 6 | 0.0 | 0.0 | 0.05 | 0.48 | 0.48 | 92 | 1014.6 | |
| 20260506222516 | 6 | 158 | 3.2 | 8.0 | 0.08 | 0.48 | 0.48 | 92 | 1014.5 |
| 20260506221516 | 6 | 0 | 6.4 | 9.7 | 0.18 | 0.48 | 0.48 | 92 | 1014.2 |
| 20260506220536 | 6 | 45 | 6.4 | 9.7 | 0.23 | 0.46 | 0.46 | 92 | 1014.0 |
| 20260506215536 | 6 | 203 | 1.6 | 6.4 | 0.33 | 0.43 | 0.43 | 91 | 1014.0 |
| 20260506214537 | 7 | 0.0 | 3.2 | 0.43 | 0.43 | 0.43 | 91 | 1014.1 | |
| 20260506213516 | 7 | 0.0 | 3.2 | 0.43 | 0.43 | 0.43 | 90 | 1014.0 | |
| 20260506212536 | 7 | 0.0 | 3.2 | 0.41 | 0.41 | 0.41 | 90 | 1014.0 | |
| 20260506211516 | 7 | 0.0 | 3.2 | 0.30 | 0.30 | 0.30 | 90 | 1014.0 | |
| 20260506210516 | 7 | 0 | 3.2 | 6.4 | 0.23 | 0.23 | 0.23 | 89 | 1014.4 |
| 20260506205517 | 8 | 225 | 1.6 | 8.0 | 0.13 | 0.13 | 0.13 | 89 | 1014.6 |
| 20260506204516 | 8 | 180 | 1.6 | 6.4 | 0.00 | 0.00 | 0.00 | 89 | 1014.4 |
| 20260506203516 | 8 | 203 | 1.6 | 8.0 | 0.00 | 0.00 | 0.00 | 89 | 1014.3 |
| 20260506202537 | 8 | 225 | 1.6 | 3.2 | 0.00 | 0.00 | 0.00 | 89 | 1013.9 |
| 20260506201516 | 8 | 203 | 3.2 | 8.0 | 0.00 | 0.00 | 0.00 | 88 | 1013.6 |
| 20260506200516 | 8 | 180 | 1.6 | 6.4 | 0.00 | 0.00 | 0.00 | 88 | 1013.4 |
| 20260506195517 | 8 | 158 | 3.2 | 9.7 | 0.00 | 0.00 | 0.00 | 88 | 1013.2 |
| 20260506194516 | 9 | 113 | 3.2 | 9.7 | 0.00 | 0.00 | 0.00 | 87 | 1013.0 |
| 20260506193537 | 9 | 180 | 1.6 | 6.4 | 0.00 | 0.00 | 0.00 | 87 | 1012.8 |
| 20260506192516 | 9 | 225 | 3.2 | 9.7 | 0.00 | 0.00 | 0.00 | 86 | 1012.7 |
| 20260506191516 | 9 | 158 | 3.2 | 8.0 | 0.00 | 0.00 | 0.00 | 86 | 1012.6 |
| 20260506190517 | 9 | 248 | 1.6 | 6.4 | 0.00 | 0.00 | 0.00 | 85 | 1012.3 |
| 20260506185516 | 9 | 180 | 4.8 | 12.9 | 0.00 | 0.00 | 0.00 | 84 | 1012.1 |
| 20260506184516 | 10 | 203 | 4.8 | 12.9 | 0.00 | 0.00 | 0.00 | 82 | 1012.3 |
| 20260506183516 | 10 | 180 | 6.4 | 16.1 | 0.00 | 0.00 | 0.00 | 81 | 1012.0 |
| 20260506182516 | 11 | 225 | 6.4 | 14.5 | 0.00 | 0.00 | 0.00 | 78 | 1011.9 |
| 20260506181516 | 11 | 158 | 3.2 | 9.7 | 0.00 | 0.00 | 0.00 | 77 | 1011.8 |
| 20260506180516 | 11 | 203 | 3.2 | 9.7 | 0.00 | 0.00 | 0.00 | 76 | 1011.3 |
| 20260506175516 | 12 | 225 | 6.4 | 9.7 | 0.00 | 0.00 | 0.00 | 74 | 1011.1 |
| 20260506174537 | 12 | 180 | 9.7 | 17.7 | 0.00 | 0.00 | 0.00 | 70 | 1011.0 |
| 20260506173515 | 12 | 293 | 1.6 | 6.4 | 0.00 | 0.03 | 0.00 | 66 | 1010.9 |
| 20260506172516 | 13 | 225 | 6.4 | 12.9 | 0.00 | 0.10 | 0.00 | 65 | 1011.1 |
| 20260506171755 | 13 | 203 | 4.8 | 11.3 | 0.00 | 0.15 | 0.00 | 64 | 1011.0 |
| 20260506171419 | 13 | 225 | 9.7 | 20.9 | 0.00 | 0.18 | 0.00 | 64 | 1011.0 |
| 20260506170536 | 13 | 203 | 9.7 | 19.3 | 0.00 | 0.18 | 0.00 | 64 | 1010.8 |